Bellaire, MI

6:26 AM EDT on July 30, 2016 (GMT -0400)
Antrim County

Weather History for KACB - February, 2013

Change the Weather History Date:

Thursday, February 21, 2013

  Actual Average (KTVC) Record (KTVC)
Temperature  
Mean Temperature 19 °F 24 °F  
Max Temperature 24 °F 32 °F 57 °F (1930)
Min Temperature 14 °F 16 °F -14 °F (1918)
Degree Days  
Heating Degree Days 46 41  
Month to date heating degree days 902  
Since 1 July heating degree days 5058  
Moisture  
Dew Point 10 °F    
Average Humidity 71    
Maximum Humidity 80    
Minimum Humidity 54    
Precipitation  
Precipitation 0.00 in 0.05 in 0.51 in (1937)
Month to date precipitation 1.12  
Year to date precipitation 3.94  
Sea Level Pressure  
Sea Level Pressure 30.34 in    
Wind  
Wind Speed 6 mph (NNE)    
Max Wind Speed 14 mph    
Max Gust Speed 20 mph    
Visibility 10 miles    
Events Snow    
T = Trace of Precipitation, MM = Missing Value Source: NWS Daily Summary

Daily Weather History Graph

Daily Weather History Graph

Search for Another Location

Airport or City:

Trip Planner

Search our weather history database for the weather conditions in past years. The results will help you decide how hot, cold, wet, or windy it might be!

Date:

Astronomy

Feb. 21, 2013 Rise Set
Actual Time 7:31 AM EST 6:17 PM EST
Civil Twilight 7:01 AM EST 6:47 PM EST
Nautical Twilight 6:27 AM EST 7:21 PM EST
Astronomical Twilight 5:53 AM EST 7:55 PM EST
Moon 2:25 PM EST (2/21) 4:43 AM EST (2/21)
Length of Visible Light 11h 45m
Length of Day
10h 45m
Waxing Gibbous, 83% of the Moon is Illuminated
Feb 21
Waxing Gibbous
Feb 25
Full
Mar 4
Last Quarter
Mar 11
New
Mar 19
First Quarter

Hourly Weather History & Observations

Time (EST) Temp. Windchill Dew Point Humidity Pressure Visibility Wind Dir Wind Speed Gust Speed Precip Events Conditions
12:15 AM 20.1 °F 11.3 °F 14.5 °F 79% 30.26 in 10.0 mi NNE 6.9 mph - N/A Snow Light Snow
12:35 AM 19.8 °F 9.1 °F 14.5 °F 80% 30.26 in 10.0 mi North 9.2 mph - N/A Snow Light Snow
12:54 AM 19.9 °F 12.1 °F 13.8 °F 77% 30.26 in 10.0 mi North 5.8 mph - N/A Snow Light Snow
1:14 AM 19.6 °F 9.7 °F 13.1 °F 76% 30.28 in 10.0 mi NNE 8.1 mph - N/A Snow Light Snow
1:35 AM 19.0 °F 10.0 °F 13.5 °F 79% 30.28 in 7.0 mi NNE 6.9 mph - N/A Snow Light Snow
1:55 AM 18.9 °F 10.8 °F 13.5 °F 79% 30.28 in 7.0 mi North 5.8 mph 16.1 mph N/A Snow Light Snow
2:14 AM 18.5 °F 6.8 °F 12.9 °F 79% 30.28 in 10.0 mi NNE 10.4 mph - N/A Snow Light Snow
2:35 AM 18.1 °F 5.6 °F 12.2 °F 78% 30.29 in 10.0 mi NNE 11.5 mph - N/A Snow Light Snow
2:54 AM 17.4 °F 8.0 °F 11.1 °F 76% 30.30 in 10.0 mi North 6.9 mph - N/A Snow Light Snow
3:14 AM 16.7 °F 9.6 °F 10.4 °F 76% 30.30 in 10.0 mi NNE 4.6 mph - N/A Snow Light Snow
3:35 AM 16.5 °F 6.0 °F 10.0 °F 76% 30.31 in 10.0 mi North 8.1 mph - N/A   Overcast
3:54 AM 16.2 °F 3.9 °F 10.0 °F 77% 30.32 in 10.0 mi North 10.4 mph - N/A Snow Light Snow
4:15 AM 15.4 °F 4.6 °F 9.5 °F 77% 30.32 in 10.0 mi North 8.1 mph - N/A Snow Light Snow
4:35 AM 14.9 °F 5.0 °F 9.5 °F 79% 30.33 in 10.0 mi North 6.9 mph - N/A Snow Light Snow
4:54 AM 14.9 °F 5.0 °F 9.3 °F 79% 30.33 in 10.0 mi North 6.9 mph - N/A Snow Light Snow
5:15 AM 14.9 °F 6.1 °F 9.3 °F 79% 30.33 in 10.0 mi North 5.8 mph - N/A Snow Light Snow
5:35 AM 14.5 °F 5.7 °F 9.3 °F 80% 30.34 in 10.0 mi NNE 5.8 mph - N/A Snow Light Snow
5:54 AM 14.4 °F 5.5 °F 9.1 °F 80% 30.34 in 10.0 mi North 5.8 mph - N/A   Overcast
6:15 AM 14.4 °F 6.9 °F 9.0 °F 79% 30.35 in 10.0 mi NNE 4.6 mph - N/A Snow Light Snow
6:54 AM 14.0 °F - 8.6 °F 79% 30.37 in 10.0 mi Calm Calm - N/A Snow Light Snow
7:15 AM 14.0 °F 6.5 °F 8.8 °F 80% 30.38 in 7.0 mi NNE 4.6 mph - N/A Snow Light Snow
7:35 AM 14.0 °F 6.5 °F 8.6 °F 79% 30.39 in 7.0 mi NNE 4.6 mph - N/A Snow Light Snow
7:54 AM 14.0 °F 8.2 °F 8.6 °F 79% 30.40 in 10.0 mi NNE 3.5 mph - N/A   Overcast
8:15 AM 14.0 °F - 8.6 °F 79% 30.40 in 10.0 mi Calm Calm - N/A   Overcast
8:35 AM 14.0 °F - 8.6 °F 79% 30.41 in 10.0 mi Calm Calm - N/A   Overcast
8:54 AM 14.7 °F 5.9 °F 9.3 °F 79% 30.41 in 10.0 mi NNE 5.8 mph - N/A Snow Light Snow
9:15 AM 14.9 °F 3.1 °F 9.5 °F 79% 30.40 in 10.0 mi NE 9.2 mph - N/A Snow Light Snow
9:34 AM 14.9 °F 2.3 °F 9.5 °F 79% 30.37 in 10.0 mi NNE 10.4 mph - N/A Snow Light Snow
9:55 AM 15.6 °F 1.2 °F 10.4 °F 80% 30.36 in 7.0 mi NNE 13.8 mph 19.6 mph N/A Snow Light Snow
10:15 AM 15.4 °F 3.0 °F 10.0 °F 79% 30.36 in 10.0 mi NNE 10.4 mph - N/A   Overcast
10:34 AM 15.8 °F 2.1 °F 9.5 °F 76% 30.35 in 10.0 mi NNE 12.7 mph - N/A   Overcast
10:55 AM 15.6 °F 4.0 °F 8.8 °F 74% 30.37 in 10.0 mi ENE 9.2 mph - N/A Snow Light Snow
11:15 AM 15.1 °F - 7.9 °F 73% 30.41 in 10.0 mi Calm Calm - N/A Snow Light Snow
11:34 AM 15.8 °F 7.2 °F 8.6 °F 73% 30.39 in 10.0 mi ENE 5.8 mph - N/A Snow Light Snow
11:55 AM 16.7 °F 11.2 °F 8.4 °F 70% 30.39 in 10.0 mi ENE 3.5 mph - N/A   Overcast
12:15 PM 17.6 °F - 8.8 °F 68% 30.39 in 10.0 mi Calm Calm - N/A   Overcast
12:34 PM 18.0 °F - 8.8 °F 67% 30.40 in 10.0 mi Calm Calm - N/A   Mostly Cloudy
1:15 PM 19.0 °F - 8.6 °F 64% 30.39 in 10.0 mi Calm Calm - N/A   Clear
1:35 PM 19.6 °F - 9.1 °F 64% 30.38 in 10.0 mi Calm Calm - N/A   Clear
1:55 PM 20.3 °F - 9.1 °F 62% 30.38 in 10.0 mi Calm Calm - N/A   Clear
2:15 PM 21.0 °F - 9.0 °F 60% 30.38 in 10.0 mi Calm Calm - N/A   Clear
2:35 PM 21.9 °F 15.7 °F 9.1 °F 58% 30.36 in 10.0 mi North 4.6 mph - N/A   Clear
2:55 PM 22.5 °F - 9.3 °F 57% 30.37 in 10.0 mi Calm Calm - N/A   Clear
3:14 PM 22.8 °F 18.2 °F 9.5 °F 57% 30.36 in 10.0 mi NNE 3.5 mph - N/A   Clear
3:35 PM 23.4 °F 17.4 °F 9.9 °F 56% 30.35 in 10.0 mi NE 4.6 mph - N/A   Clear
3:55 PM 23.9 °F - 9.7 °F 55% 30.34 in 10.0 mi Calm Calm - N/A   Clear
4:14 PM 23.9 °F 15.8 °F 9.7 °F 55% 30.32 in 10.0 mi NNE 6.9 mph - N/A   Clear
4:35 PM 23.9 °F 18.0 °F 10.4 °F 56% 30.31 in 10.0 mi NNE 4.6 mph - N/A   Clear
4:55 PM 24.1 °F 17.0 °F 9.9 °F 55% 30.33 in 10.0 mi North 5.8 mph - N/A   Clear
5:15 PM 23.5 °F 16.4 °F 10.2 °F 57% 30.33 in 10.0 mi NNE 5.8 mph - N/A   Clear
5:35 PM 24.1 °F 19.7 °F 9.5 °F 54% 30.33 in 10.0 mi North 3.5 mph - N/A   Clear
5:55 PM 23.7 °F 19.3 °F 9.5 °F 55% 30.34 in 10.0 mi North 3.5 mph - N/A   Clear
6:15 PM 22.6 °F - 10.2 °F 59% 30.35 in 10.0 mi Calm Calm - N/A   Clear
6:35 PM 21.9 °F 17.2 °F 9.5 °F 59% 30.35 in 10.0 mi North 3.5 mph - N/A   Clear
6:55 PM 21.0 °F - 9.5 °F 61% 30.35 in 10.0 mi Calm Calm - N/A   Clear
7:15 PM 18.1 °F - 8.8 °F 67% 30.35 in 10.0 mi Calm Calm - N/A   Clear
7:35 PM 16.9 °F - 10.6 °F 76% 30.34 in 10.0 mi Calm Calm - N/A   Clear
7:55 PM 18.0 °F - 9.1 °F 68% 30.33 in 10.0 mi Calm Calm - N/A   Clear
8:15 PM 17.8 °F - 9.5 °F 70% 30.33 in 10.0 mi Calm Calm - N/A   Clear
8:35 PM 17.6 °F 10.7 °F 8.6 °F 68% 30.33 in 10.0 mi NE 4.6 mph - N/A   Clear
8:55 PM 18.1 °F 11.3 °F 8.6 °F 66% 30.33 in 10.0 mi NNE 4.6 mph - N/A   Clear
9:15 PM 17.6 °F - 8.2 °F 67% 30.34 in 10.0 mi Calm Calm - N/A   Clear
9:35 PM 17.1 °F 7.6 °F 8.6 °F 69% 30.34 in 10.0 mi NE 6.9 mph - N/A   Clear
9:55 PM 17.6 °F 8.2 °F 9.1 °F 69% 30.33 in 10.0 mi NE 6.9 mph - N/A   Clear
10:15 PM 17.6 °F 8.2 °F 9.3 °F 70% 30.33 in 10.0 mi NE 6.9 mph - N/A   Clear
10:35 PM 17.6 °F 10.7 °F 9.5 °F 71% 30.33 in 10.0 mi NE 4.6 mph - N/A   Clear
10:54 PM 16.7 °F 9.6 °F 9.5 °F 73% 30.31 in 10.0 mi NE 4.6 mph - N/A   Clear
11:14 PM 16.7 °F 8.3 °F 9.5 °F 73% 30.30 in 10.0 mi NE 5.8 mph - N/A   Clear
11:35 PM 17.1 °F 8.7 °F 10.2 °F 75% 30.29 in 10.0 mi NE 5.8 mph - N/A   Scattered Clouds
11:54 PM 18.0 °F 12.7 °F 11.5 °F 76% 30.28 in 10.0 mi NE 3.5 mph - N/A   Mostly Cloudy